Year,Month,Day,Hour,Minute,Value (Times are PST for temperature in C)
2017,08,15,00,00,16.00
2017,08,15,00,01,16.00
2017,08,15,00,02,16.00
2017,08,15,00,03,16.00
2017,08,15,00,04,15.90
2017,08,15,00,05,15.90
2017,08,15,00,06,15.90
2017,08,15,00,07,15.90
2017,08,15,00,08,15.90
2017,08,15,00,09,15.90
2017,08,15,00,10,15.90
2017,08,15,00,11,15.90
2017,08,15,00,12,15.90
2017,08,15,00,13,15.90
2017,08,15,00,14,15.90
2017,08,15,00,15,15.90
2017,08,15,00,16,15.90
2017,08,15,00,17,15.90
2017,08,15,00,18,15.90
2017,08,15,00,19,15.90
2017,08,15,00,20,16.00
2017,08,15,00,21,16.00
2017,08,15,00,22,16.00
2017,08,15,00,23,16.10
2017,08,15,00,24,16.10
2017,08,15,00,25,16.10
2017,08,15,00,26,16.10
2017,08,15,00,27,16.10
2017,08,15,00,28,16.10
2017,08,15,00,29,16.10
2017,08,15,00,30,16.10
2017,08,15,00,31,16.10
2017,08,15,00,32,16.10
2017,08,15,00,33,16.10
2017,08,15,00,34,16.10
2017,08,15,00,35,16.10
2017,08,15,00,36,16.10
2017,08,15,00,37,16.10
2017,08,15,00,38,16.10
2017,08,15,00,39,16.20
2017,08,15,00,40,16.20
2017,08,15,00,41,16.20
2017,08,15,00,42,16.20
2017,08,15,00,43,16.20
2017,08,15,00,44,16.10
2017,08,15,00,45,16.10
2017,08,15,00,46,16.10
2017,08,15,00,47,16.10
2017,08,15,00,48,16.10
2017,08,15,00,49,16.10
2017,08,15,00,50,16.10
2017,08,15,00,51,16.10
2017,08,15,00,52,16.00
2017,08,15,00,53,16.00
2017,08,15,00,54,16.00
2017,08,15,00,55,16.00
2017,08,15,00,56,16.00
2017,08,15,00,57,16.00
2017,08,15,00,58,16.00
2017,08,15,00,59,16.00
2017,08,15,01,00,16.00
2017,08,15,01,01,16.00
2017,08,15,01,02,16.00
2017,08,15,01,03,16.00
2017,08,15,01,04,16.00
2017,08,15,01,05,16.00
2017,08,15,01,06,16.00
2017,08,15,01,07,16.00
2017,08,15,01,08,16.00
2017,08,15,01,09,16.00
2017,08,15,01,10,16.00
2017,08,15,01,11,16.00
2017,08,15,01,12,16.00
2017,08,15,01,13,16.00
2017,08,15,01,14,16.00
2017,08,15,01,15,16.00
2017,08,15,01,16,15.90
2017,08,15,01,17,15.90
2017,08,15,01,18,15.90
2017,08,15,01,19,15.90
2017,08,15,01,20,15.90
2017,08,15,01,21,15.90
2017,08,15,01,22,15.90
2017,08,15,01,23,15.90
2017,08,15,01,24,15.90
2017,08,15,01,25,15.90
2017,08,15,01,26,15.90
2017,08,15,01,27,15.90
2017,08,15,01,28,15.90
2017,08,15,01,29,15.90
2017,08,15,01,30,15.90
2017,08,15,01,31,15.90
2017,08,15,01,32,15.90
2017,08,15,01,33,15.90
2017,08,15,01,34,15.90
2017,08,15,01,35,15.90
2017,08,15,01,36,15.90
2017,08,15,01,37,15.80
2017,08,15,01,38,15.80
2017,08,15,01,39,15.80
2017,08,15,01,40,15.80
2017,08,15,01,41,15.80
2017,08,15,01,42,15.80
2017,08,15,01,43,15.80
2017,08,15,01,44,15.80
2017,08,15,01,45,15.80
2017,08,15,01,46,15.80
2017,08,15,01,47,15.70
2017,08,15,01,48,15.70
2017,08,15,01,49,15.70
2017,08,15,01,50,15.70
2017,08,15,01,51,15.70
2017,08,15,01,52,15.70
2017,08,15,01,53,15.70
2017,08,15,01,54,15.70
2017,08,15,01,55,15.70
2017,08,15,01,56,15.70
2017,08,15,01,57,15.60
2017,08,15,01,58,15.60
2017,08,15,01,59,15.60
2017,08,15,02,00,15.60
2017,08,15,02,01,15.60
2017,08,15,02,02,15.60
2017,08,15,02,03,15.60
2017,08,15,02,04,15.60
2017,08,15,02,05,15.50
2017,08,15,02,06,15.50
2017,08,15,02,07,15.50
2017,08,15,02,08,15.50
2017,08,15,02,09,15.40
2017,08,15,02,10,15.40
2017,08,15,02,11,15.40
2017,08,15,02,12,15.40
2017,08,15,02,13,15.40
2017,08,15,02,14,15.30
2017,08,15,02,15,15.30
2017,08,15,02,16,15.30
2017,08,15,02,17,15.30
2017,08,15,02,18,15.30
2017,08,15,02,19,15.30
2017,08,15,02,20,15.30
2017,08,15,02,21,15.30
2017,08,15,02,22,15.30
2017,08,15,02,23,15.20
2017,08,15,02,24,15.20
2017,08,15,02,25,15.20
2017,08,15,02,26,15.20
2017,08,15,02,27,15.20
2017,08,15,02,28,15.20
2017,08,15,02,29,15.20
2017,08,15,02,30,15.20
2017,08,15,02,31,15.20
2017,08,15,02,32,15.20
2017,08,15,02,33,15.20
2017,08,15,02,34,15.20
2017,08,15,02,35,15.20
2017,08,15,02,36,15.10
2017,08,15,02,37,15.10
2017,08,15,02,38,15.10
2017,08,15,02,39,15.10
2017,08,15,02,40,15.10
2017,08,15,02,41,15.10
2017,08,15,02,42,15.10
2017,08,15,02,43,15.10
2017,08,15,02,44,15.00
2017,08,15,02,45,15.00
2017,08,15,02,46,15.00
2017,08,15,02,47,14.90
2017,08,15,02,48,14.90
2017,08,15,02,49,14.90
2017,08,15,02,50,14.90
2017,08,15,02,51,14.90
2017,08,15,02,52,14.90
2017,08,15,02,53,14.80
2017,08,15,02,54,14.80
2017,08,15,02,55,14.80
2017,08,15,02,56,14.80
2017,08,15,02,57,14.80
2017,08,15,02,58,14.80
2017,08,15,02,59,14.80
2017,08,15,03,00,14.70
2017,08,15,03,01,14.70
2017,08,15,03,02,14.70
2017,08,15,03,03,14.70
2017,08,15,03,04,14.60
2017,08,15,03,05,14.60
2017,08,15,03,06,14.60
2017,08,15,03,07,14.60
2017,08,15,03,08,14.60
2017,08,15,03,09,14.60
2017,08,15,03,10,14.60
2017,08,15,03,11,14.60
2017,08,15,03,12,14.60
2017,08,15,03,13,14.60
2017,08,15,03,14,14.50
2017,08,15,03,15,14.50
2017,08,15,03,16,14.50
2017,08,15,03,17,14.50
2017,08,15,03,18,14.50
2017,08,15,03,19,14.50
2017,08,15,03,20,14.50
2017,08,15,03,21,14.50
2017,08,15,03,22,14.50
2017,08,15,03,23,14.50
2017,08,15,03,24,14.50
2017,08,15,03,25,14.50
2017,08,15,03,26,14.50
2017,08,15,03,27,14.50
2017,08,15,03,28,14.50
2017,08,15,03,29,14.50
2017,08,15,03,30,14.50
2017,08,15,03,31,14.40
2017,08,15,03,32,14.40
2017,08,15,03,33,14.40
2017,08,15,03,34,14.40
2017,08,15,03,35,14.40
2017,08,15,03,36,14.40
2017,08,15,03,37,14.40
2017,08,15,03,38,14.40
2017,08,15,03,39,14.40
2017,08,15,03,40,14.40
2017,08,15,03,41,14.40
2017,08,15,03,42,14.40
2017,08,15,03,43,14.40
2017,08,15,03,44,14.40
2017,08,15,03,45,14.40
2017,08,15,03,46,14.40
2017,08,15,03,47,14.40
2017,08,15,03,48,14.40
2017,08,15,03,49,14.40
2017,08,15,03,50,14.50
2017,08,15,03,51,14.50
2017,08,15,03,52,14.50
2017,08,15,03,53,14.50
2017,08,15,03,54,14.50
2017,08,15,03,55,14.50
2017,08,15,03,56,14.50
2017,08,15,03,57,14.50
2017,08,15,03,58,14.50
2017,08,15,03,59,14.50
2017,08,15,04,00,14.40
2017,08,15,04,01,14.50
2017,08,15,04,02,14.50
2017,08,15,04,03,14.50
2017,08,15,04,04,14.50
2017,08,15,04,05,14.50
2017,08,15,04,06,14.50
2017,08,15,04,07,14.40
2017,08,15,04,08,14.40
2017,08,15,04,09,14.40
2017,08,15,04,10,14.40
2017,08,15,04,11,14.40
2017,08,15,04,12,14.40
2017,08,15,04,13,14.40
2017,08,15,04,14,14.40
2017,08,15,04,15,14.40
2017,08,15,04,16,14.50
2017,08,15,04,17,14.50
2017,08,15,04,18,14.50
2017,08,15,04,19,14.50
2017,08,15,04,20,14.50
2017,08,15,04,21,14.50
2017,08,15,04,22,14.50
2017,08,15,04,23,14.50
2017,08,15,04,24,14.50
2017,08,15,04,25,14.50
2017,08,15,04,26,14.50
2017,08,15,04,27,14.50
2017,08,15,04,28,14.50
2017,08,15,04,29,14.50
2017,08,15,04,30,14.50
2017,08,15,04,31,14.50
2017,08,15,04,32,14.50
2017,08,15,04,33,14.50
2017,08,15,04,34,14.50
2017,08,15,04,35,14.50
2017,08,15,04,36,14.50
2017,08,15,04,37,14.50
2017,08,15,04,38,14.50
2017,08,15,04,39,14.50
2017,08,15,04,40,14.50
2017,08,15,04,41,14.50
2017,08,15,04,42,14.40
2017,08,15,04,43,14.40
2017,08,15,04,44,14.40
2017,08,15,04,45,14.40
2017,08,15,04,46,14.40
2017,08,15,04,47,14.40
2017,08,15,04,48,14.40
2017,08,15,04,49,14.40
2017,08,15,04,50,14.40
2017,08,15,04,51,14.40
2017,08,15,04,52,14.40
2017,08,15,04,53,14.40
2017,08,15,04,54,14.40
2017,08,15,04,55,14.30
2017,08,15,04,56,14.30
2017,08,15,04,57,14.30
2017,08,15,04,58,14.30
2017,08,15,04,59,14.30
2017,08,15,05,00,14.30
2017,08,15,05,01,14.30
2017,08,15,05,02,14.30
2017,08,15,05,03,14.30
2017,08,15,05,04,14.30
2017,08,15,05,05,14.30
2017,08,15,05,06,14.30
2017,08,15,05,07,14.30
2017,08,15,05,08,14.30
2017,08,15,05,09,14.30
2017,08,15,05,10,14.30
2017,08,15,05,11,14.20
2017,08,15,05,12,14.20
2017,08,15,05,13,14.20
2017,08,15,05,14,14.20
2017,08,15,05,15,14.20
2017,08,15,05,16,14.20
2017,08,15,05,17,14.20
2017,08,15,05,18,14.20
2017,08,15,05,19,14.20
2017,08,15,05,20,14.20
2017,08,15,05,21,14.20
2017,08,15,05,22,14.20
2017,08,15,05,23,14.20
2017,08,15,05,24,14.20
2017,08,15,05,25,14.20
2017,08,15,05,26,14.20
2017,08,15,05,27,14.20
2017,08,15,05,28,14.20
2017,08,15,05,29,14.10
2017,08,15,05,30,14.10
2017,08,15,05,31,14.10
2017,08,15,05,32,14.10
2017,08,15,05,33,14.10
2017,08,15,05,34,14.10
2017,08,15,05,35,14.10
2017,08,15,05,36,14.10
2017,08,15,05,37,14.10
2017,08,15,05,38,14.10
2017,08,15,05,39,14.10
2017,08,15,05,40,14.10
2017,08,15,05,41,14.10
2017,08,15,05,42,14.10
2017,08,15,05,43,14.10
2017,08,15,05,44,14.10
2017,08,15,05,45,14.10
2017,08,15,05,46,14.00
2017,08,15,05,47,14.00
2017,08,15,05,48,14.00
2017,08,15,05,49,14.00
2017,08,15,05,50,14.00
2017,08,15,05,51,14.00
2017,08,15,05,52,14.00
2017,08,15,05,53,14.00
2017,08,15,05,54,14.00
2017,08,15,05,55,13.90
2017,08,15,05,56,13.90
2017,08,15,05,57,13.90
2017,08,15,05,58,13.90
2017,08,15,05,59,13.90
2017,08,15,06,00,13.90
2017,08,15,06,01,13.90
2017,08,15,06,02,13.90
2017,08,15,06,03,14.00
2017,08,15,06,04,14.00
2017,08,15,06,05,14.00
2017,08,15,06,06,14.00
2017,08,15,06,07,13.90
2017,08,15,06,08,13.90
2017,08,15,06,09,13.90
2017,08,15,06,10,13.90
2017,08,15,06,11,13.90
2017,08,15,06,12,13.90
2017,08,15,06,13,13.90
2017,08,15,06,14,13.90
2017,08,15,06,15,13.90
2017,08,15,06,16,13.90
2017,08,15,06,17,13.90
2017,08,15,06,18,14.00
2017,08,15,06,19,14.00
2017,08,15,06,20,14.00
2017,08,15,06,21,14.00
2017,08,15,06,22,14.00
2017,08,15,06,23,14.00
2017,08,15,06,24,14.00
2017,08,15,06,25,14.00
2017,08,15,06,26,14.00
2017,08,15,06,27,14.00
2017,08,15,06,28,14.10
2017,08,15,06,29,14.10
2017,08,15,06,30,14.10
2017,08,15,06,31,14.10
2017,08,15,06,32,14.10
2017,08,15,06,33,14.10
2017,08,15,06,34,14.10
2017,08,15,06,35,14.10
2017,08,15,06,36,14.10
2017,08,15,06,37,14.10
2017,08,15,06,38,14.10
2017,08,15,06,39,14.10
2017,08,15,06,40,14.10
2017,08,15,06,41,14.10
2017,08,15,06,42,14.10
2017,08,15,06,43,14.10
2017,08,15,06,44,14.10
2017,08,15,06,45,14.10
2017,08,15,06,46,14.10
2017,08,15,06,47,14.10
2017,08,15,06,48,14.20
2017,08,15,06,49,14.10
2017,08,15,06,50,14.10
2017,08,15,06,51,14.10
2017,08,15,06,52,14.10
2017,08,15,06,53,14.10
2017,08,15,06,54,14.10
2017,08,15,06,55,14.10
2017,08,15,06,56,14.10
2017,08,15,06,57,14.10
2017,08,15,06,58,14.10
2017,08,15,06,59,14.10
2017,08,15,07,00,14.10
2017,08,15,07,01,14.10
2017,08,15,07,02,14.10
2017,08,15,07,03,14.10
2017,08,15,07,04,14.10
2017,08,15,07,05,14.10
2017,08,15,07,06,14.10
2017,08,15,07,07,14.10
2017,08,15,07,08,14.10
2017,08,15,07,09,14.20
2017,08,15,07,10,14.20
2017,08,15,07,11,14.20
2017,08,15,07,12,14.20
2017,08,15,07,13,14.20
2017,08,15,07,14,14.20
2017,08,15,07,15,14.20
2017,08,15,07,16,14.20
2017,08,15,07,17,14.20
2017,08,15,07,18,14.30
2017,08,15,07,19,14.30
2017,08,15,07,20,14.30
2017,08,15,07,21,14.30
2017,08,15,07,22,14.40
2017,08,15,07,23,14.40
2017,08,15,07,24,14.40
2017,08,15,07,25,14.40
2017,08,15,07,26,14.40
2017,08,15,07,27,14.40
2017,08,15,07,28,14.50
2017,08,15,07,29,14.50
2017,08,15,07,30,14.50
2017,08,15,07,31,14.60
2017,08,15,07,32,14.60
2017,08,15,07,33,14.60
2017,08,15,07,34,14.70
2017,08,15,07,35,14.70
2017,08,15,07,36,14.70
2017,08,15,07,37,14.80
2017,08,15,07,38,14.80
2017,08,15,07,39,14.80
2017,08,15,07,40,14.80
2017,08,15,07,41,14.80
2017,08,15,07,42,14.80
2017,08,15,07,43,14.80
2017,08,15,07,44,14.90
2017,08,15,07,45,14.90
2017,08,15,07,46,14.90
2017,08,15,07,47,15.00
2017,08,15,07,48,15.00
2017,08,15,07,49,15.00
2017,08,15,07,50,15.10
2017,08,15,07,51,15.10
2017,08,15,07,52,15.10
2017,08,15,07,53,15.10
2017,08,15,07,54,15.10
2017,08,15,07,55,15.10
2017,08,15,07,56,15.10
2017,08,15,07,57,15.10
2017,08,15,07,58,15.10
2017,08,15,07,59,15.10
2017,08,15,08,00,15.10
2017,08,15,08,01,15.10
2017,08,15,08,02,15.10
2017,08,15,08,03,15.20
2017,08,15,08,04,15.20
2017,08,15,08,05,15.20
2017,08,15,08,06,15.20
2017,08,15,08,07,15.20
2017,08,15,08,08,15.20
2017,08,15,08,09,15.20
2017,08,15,08,10,15.30
2017,08,15,08,11,15.30
2017,08,15,08,12,15.30
2017,08,15,08,13,15.30
2017,08,15,08,14,15.30
2017,08,15,08,15,15.30
2017,08,15,08,16,15.30
2017,08,15,08,17,15.30
2017,08,15,08,18,15.30
2017,08,15,08,19,15.30
2017,08,15,08,20,15.30
2017,08,15,08,21,15.40
2017,08,15,08,22,15.40
2017,08,15,08,23,15.40
2017,08,15,08,24,15.40
2017,08,15,08,25,15.40
2017,08,15,08,26,15.40
2017,08,15,08,27,15.40
2017,08,15,08,28,15.40
2017,08,15,08,29,15.40
2017,08,15,08,30,15.40
2017,08,15,08,31,15.40
2017,08,15,08,32,15.40
2017,08,15,08,33,15.40
2017,08,15,08,34,15.40
2017,08,15,08,35,15.40
2017,08,15,08,36,15.40
2017,08,15,08,37,15.40
2017,08,15,08,38,15.40
2017,08,15,08,39,15.50
2017,08,15,08,40,15.50
2017,08,15,08,41,15.50
2017,08,15,08,42,15.50
2017,08,15,08,43,15.50
2017,08,15,08,44,15.50
2017,08,15,08,45,15.60
2017,08,15,08,46,15.60
2017,08,15,08,47,15.60
2017,08,15,08,48,15.60
2017,08,15,08,49,15.60
2017,08,15,08,50,15.60
2017,08,15,08,51,15.60
2017,08,15,08,52,15.70
2017,08,15,08,53,15.70
2017,08,15,08,54,15.70
2017,08,15,08,55,15.70
2017,08,15,08,56,15.70
2017,08,15,08,57,15.70
2017,08,15,08,58,15.70
2017,08,15,08,59,15.70
2017,08,15,09,00,15.80
2017,08,15,09,01,15.80
2017,08,15,09,02,15.70
2017,08,15,09,03,15.70
2017,08,15,09,04,15.70
2017,08,15,09,05,15.70
2017,08,15,09,06,15.70
2017,08,15,09,07,15.70
2017,08,15,09,08,15.70
2017,08,15,09,09,15.80
2017,08,15,09,10,15.80
2017,08,15,09,11,15.80
2017,08,15,09,12,15.90
2017,08,15,09,13,15.90
2017,08,15,09,14,16.00
2017,08,15,09,15,16.10
2017,08,15,09,16,16.10
2017,08,15,09,17,16.10
2017,08,15,09,18,16.10
2017,08,15,09,19,16.20
2017,08,15,09,20,16.20
2017,08,15,09,21,16.20
2017,08,15,09,22,16.30
2017,08,15,09,23,16.30
2017,08,15,09,24,16.40
2017,08,15,09,25,16.40
2017,08,15,09,26,16.40
2017,08,15,09,27,16.50
2017,08,15,09,28,16.50
2017,08,15,09,29,16.50
2017,08,15,09,30,16.60
2017,08,15,09,31,16.60
2017,08,15,09,32,16.60
2017,08,15,09,33,16.60
2017,08,15,09,34,16.70
2017,08,15,09,35,16.70
2017,08,15,09,36,16.70
2017,08,15,09,37,16.80
2017,08,15,09,38,16.80
2017,08,15,09,39,16.90
2017,08,15,09,40,17.00
2017,08,15,09,41,17.00
2017,08,15,09,42,17.10
2017,08,15,09,43,17.10
2017,08,15,09,44,17.10
2017,08,15,09,45,17.20
2017,08,15,09,46,17.20
2017,08,15,09,47,17.20
2017,08,15,09,48,17.20
2017,08,15,09,49,17.30
2017,08,15,09,50,17.30
2017,08,15,09,51,17.30
2017,08,15,09,52,17.30
2017,08,15,09,53,17.30
2017,08,15,09,54,17.40
2017,08,15,09,55,17.40
2017,08,15,09,56,17.50
2017,08,15,09,57,17.50
2017,08,15,09,58,17.50
2017,08,15,09,59,17.60
2017,08,15,10,00,17.60
2017,08,15,10,01,17.60
2017,08,15,10,02,17.70
2017,08,15,10,03,17.70
2017,08,15,10,04,17.70
2017,08,15,10,05,17.70
2017,08,15,10,06,17.70
2017,08,15,10,07,17.70
2017,08,15,10,08,17.70
2017,08,15,10,09,17.70
2017,08,15,10,10,17.70
2017,08,15,10,11,17.80
2017,08,15,10,12,17.80
2017,08,15,10,13,17.80
2017,08,15,10,14,17.80
2017,08,15,10,15,17.80
2017,08,15,10,16,17.80
2017,08,15,10,17,17.90
2017,08,15,10,18,17.90
2017,08,15,10,19,17.90
2017,08,15,10,20,17.90
2017,08,15,10,21,17.90
2017,08,15,10,22,17.90
2017,08,15,10,23,17.90
2017,08,15,10,24,17.90
2017,08,15,10,25,18.00
2017,08,15,10,26,18.00
2017,08,15,10,27,18.10
2017,08,15,10,28,18.00
2017,08,15,10,29,18.00
2017,08,15,10,30,18.10
2017,08,15,10,31,18.10
2017,08,15,10,32,18.20
2017,08,15,10,33,18.20
2017,08,15,10,34,18.20
2017,08,15,10,35,18.20
2017,08,15,10,36,18.30
2017,08,15,10,37,18.30
2017,08,15,10,38,18.20
2017,08,15,10,39,18.20
2017,08,15,10,40,18.20
2017,08,15,10,41,18.20
2017,08,15,10,42,18.20
2017,08,15,10,43,18.20
2017,08,15,10,44,18.20
2017,08,15,10,45,18.20
2017,08,15,10,46,18.20
2017,08,15,10,47,18.20
2017,08,15,10,48,18.20
2017,08,15,10,49,18.20
2017,08,15,10,50,18.20
2017,08,15,10,51,18.20
2017,08,15,10,52,18.20
2017,08,15,10,53,18.20
2017,08,15,10,54,18.20
2017,08,15,10,55,18.20
2017,08,15,10,56,18.20
2017,08,15,10,57,18.30
2017,08,15,10,58,18.30
2017,08,15,10,59,18.30
2017,08,15,11,00,18.40
2017,08,15,11,01,18.50
2017,08,15,11,02,18.50
2017,08,15,11,03,18.60
2017,08,15,11,04,18.60
2017,08,15,11,05,18.70
2017,08,15,11,06,18.70
2017,08,15,11,07,18.70
2017,08,15,11,08,18.70
2017,08,15,11,09,18.70
2017,08,15,11,10,18.70
2017,08,15,11,11,18.70
2017,08,15,11,12,18.70
2017,08,15,11,13,18.80
2017,08,15,11,14,18.80
2017,08,15,11,15,18.80
2017,08,15,11,16,18.70
2017,08,15,11,17,18.70
2017,08,15,11,18,18.70
2017,08,15,11,19,18.60
2017,08,15,11,20,18.60
2017,08,15,11,21,18.70
2017,08,15,11,22,18.70
2017,08,15,11,23,18.70
2017,08,15,11,24,18.70
2017,08,15,11,25,18.70
2017,08,15,11,26,18.70
2017,08,15,11,27,18.70
2017,08,15,11,28,18.70
2017,08,15,11,29,18.80
2017,08,15,11,30,18.80
2017,08,15,11,31,18.80
2017,08,15,11,32,18.90
2017,08,15,11,33,19.00
2017,08,15,11,34,19.00
2017,08,15,11,35,19.00
2017,08,15,11,36,18.90
2017,08,15,11,37,18.90
2017,08,15,11,38,18.90
2017,08,15,11,39,18.90
2017,08,15,11,40,18.90
2017,08,15,11,41,19.00
2017,08,15,11,42,19.00
2017,08,15,11,43,19.00
2017,08,15,11,44,19.00
2017,08,15,11,45,19.00
2017,08,15,11,46,19.00
2017,08,15,11,47,19.00
2017,08,15,11,48,18.90
2017,08,15,11,49,18.80
2017,08,15,11,50,18.80
2017,08,15,11,51,18.80
2017,08,15,11,52,18.80
2017,08,15,11,53,18.90
2017,08,15,11,54,19.00
2017,08,15,11,55,19.10
2017,08,15,11,56,19.10
2017,08,15,11,57,19.20
2017,08,15,11,58,19.20
2017,08,15,11,59,19.30
2017,08,15,12,00,19.30
2017,08,15,12,01,19.30
2017,08,15,12,02,19.30
2017,08,15,12,03,19.30
2017,08,15,12,04,19.30
2017,08,15,12,05,19.30
2017,08,15,12,06,19.30
2017,08,15,12,07,19.40
2017,08,15,12,08,19.50
2017,08,15,12,09,19.60
2017,08,15,12,10,19.70
2017,08,15,12,11,19.80
2017,08,15,12,12,19.90
2017,08,15,12,13,20.00
2017,08,15,12,14,20.10
2017,08,15,12,15,20.10
2017,08,15,12,16,20.30
2017,08,15,12,17,20.30
2017,08,15,12,18,20.40
2017,08,15,12,19,20.40
2017,08,15,12,20,20.40
2017,08,15,12,21,20.40
2017,08,15,12,22,20.40
2017,08,15,12,23,20.50
2017,08,15,12,24,20.50
2017,08,15,12,25,20.60
2017,08,15,12,26,20.60
2017,08,15,12,27,20.70
2017,08,15,12,28,20.80
2017,08,15,12,29,20.90
2017,08,15,12,30,21.00
2017,08,15,12,31,21.00
2017,08,15,12,32,21.00
2017,08,15,12,33,21.00
2017,08,15,12,34,21.00
2017,08,15,12,35,20.80
2017,08,15,12,36,20.60
2017,08,15,12,37,20.40
2017,08,15,12,38,20.30
2017,08,15,12,39,20.20
2017,08,15,12,40,20.10
2017,08,15,12,41,20.00
2017,08,15,12,42,20.00
2017,08,15,12,43,20.00
2017,08,15,12,44,19.90
2017,08,15,12,45,19.80
2017,08,15,12,46,19.70
2017,08,15,12,47,19.70
2017,08,15,12,48,19.70
2017,08,15,12,49,19.70
2017,08,15,12,50,19.60
2017,08,15,12,51,19.60
2017,08,15,12,52,19.70
2017,08,15,12,53,19.70
2017,08,15,12,54,19.60
2017,08,15,12,55,19.60
2017,08,15,12,56,19.50
2017,08,15,12,57,19.50
2017,08,15,12,58,19.60
2017,08,15,12,59,19.70
2017,08,15,13,00,19.80
2017,08,15,13,01,19.90
2017,08,15,13,02,20.00
2017,08,15,13,03,20.10
2017,08,15,13,04,20.20
2017,08,15,13,05,20.20
2017,08,15,13,06,20.20
2017,08,15,13,07,20.20
2017,08,15,13,08,20.20
2017,08,15,13,09,20.30
2017,08,15,13,10,20.30
2017,08,15,13,11,20.30
2017,08,15,13,12,20.40
2017,08,15,13,13,20.50
2017,08,15,13,14,20.50
2017,08,15,13,15,20.60
2017,08,15,13,16,20.70
2017,08,15,13,17,20.70
2017,08,15,13,18,20.70
2017,08,15,13,19,20.80
2017,08,15,13,20,20.80
2017,08,15,13,21,20.70
2017,08,15,13,22,20.80
2017,08,15,13,23,20.80
2017,08,15,13,24,20.80
2017,08,15,13,25,20.80
2017,08,15,13,26,20.70
2017,08,15,13,27,20.70
2017,08,15,13,28,20.60
2017,08,15,13,29,20.60
2017,08,15,13,30,20.60
2017,08,15,13,31,20.60
2017,08,15,13,32,20.70
2017,08,15,13,33,20.70
2017,08,15,13,34,20.70
2017,08,15,13,35,20.70
2017,08,15,13,36,20.60
2017,08,15,13,37,20.60
2017,08,15,13,38,20.60
2017,08,15,13,39,20.60
2017,08,15,13,40,20.60
2017,08,15,13,41,20.60
2017,08,15,13,42,20.70
2017,08,15,13,43,20.60
2017,08,15,13,44,20.60
2017,08,15,13,45,20.60
2017,08,15,13,46,20.60
2017,08,15,13,47,20.60
2017,08,15,13,48,20.60
2017,08,15,13,49,20.60
2017,08,15,13,50,20.60
2017,08,15,13,51,20.60
2017,08,15,13,52,20.60
2017,08,15,13,53,20.60
2017,08,15,13,54,20.60
2017,08,15,13,55,20.60
2017,08,15,13,56,20.60
2017,08,15,13,57,20.60
2017,08,15,13,58,20.70
2017,08,15,13,59,20.70
2017,08,15,14,00,20.70
2017,08,15,14,01,20.70
2017,08,15,14,02,20.70
2017,08,15,14,03,20.80
2017,08,15,14,04,20.80
2017,08,15,14,05,20.80
2017,08,15,14,06,20.90
2017,08,15,14,07,21.00
2017,08,15,14,08,21.00
2017,08,15,14,09,21.00
2017,08,15,14,10,21.10
2017,08,15,14,11,21.00
2017,08,15,14,12,20.90
2017,08,15,14,13,20.90
2017,08,15,14,14,20.90
2017,08,15,14,15,20.90
2017,08,15,14,16,20.90
2017,08,15,14,17,20.90
2017,08,15,14,18,20.90
2017,08,15,14,19,20.90
2017,08,15,14,20,20.90
2017,08,15,14,21,20.90
2017,08,15,14,22,20.90
2017,08,15,14,23,20.90
2017,08,15,14,24,20.90
2017,08,15,14,25,20.90
2017,08,15,14,26,20.90
2017,08,15,14,27,20.80
2017,08,15,14,28,20.90
2017,08,15,14,29,20.90
2017,08,15,14,30,20.90
2017,08,15,14,31,21.00
2017,08,15,14,32,21.10
2017,08,15,14,33,21.10
2017,08,15,14,34,21.20
2017,08,15,14,35,21.20
2017,08,15,14,36,21.30
2017,08,15,14,37,21.20
2017,08,15,14,38,21.20
2017,08,15,14,39,21.20
2017,08,15,14,40,21.20
2017,08,15,14,41,21.20
2017,08,15,14,42,21.20
2017,08,15,14,43,21.20
2017,08,15,14,44,21.20
2017,08,15,14,45,21.20
2017,08,15,14,46,21.30
2017,08,15,14,47,21.30
2017,08,15,14,48,21.30
2017,08,15,14,49,21.40
2017,08,15,14,50,21.40
2017,08,15,14,51,21.40
2017,08,15,14,52,21.50
2017,08,15,14,53,21.60
2017,08,15,14,54,21.60
2017,08,15,14,55,21.60
2017,08,15,14,56,21.70
2017,08,15,14,57,21.70
2017,08,15,14,58,21.60
2017,08,15,14,59,21.60
2017,08,15,15,00,21.60
2017,08,15,15,01,21.60
2017,08,15,15,02,21.60
2017,08,15,15,03,21.70
2017,08,15,15,04,21.70
2017,08,15,15,05,21.70
2017,08,15,15,06,21.70
2017,08,15,15,07,21.70
2017,08,15,15,08,21.70
2017,08,15,15,09,21.70
2017,08,15,15,10,21.70
2017,08,15,15,11,21.70
2017,08,15,15,12,21.80
2017,08,15,15,13,21.70
2017,08,15,15,14,21.70
2017,08,15,15,15,21.80
2017,08,15,15,16,21.80
2017,08,15,15,17,21.90
2017,08,15,15,18,22.00
2017,08,15,15,19,22.10
2017,08,15,15,20,22.10
2017,08,15,15,21,22.20
2017,08,15,15,22,22.20
2017,08,15,15,23,22.20
2017,08,15,15,24,22.20
2017,08,15,15,25,22.20
2017,08,15,15,26,22.20
2017,08,15,15,27,22.20
2017,08,15,15,28,22.20
2017,08,15,15,29,22.20
2017,08,15,15,30,22.20
2017,08,15,15,31,22.20
2017,08,15,15,32,22.20
2017,08,15,15,33,22.20
2017,08,15,15,34,22.30
2017,08,15,15,35,22.30
2017,08,15,15,36,22.30
2017,08,15,15,37,22.30
2017,08,15,15,38,22.30
2017,08,15,15,39,22.30
2017,08,15,15,40,22.20
2017,08,15,15,41,22.20
2017,08,15,15,42,22.10
2017,08,15,15,43,22.10
2017,08,15,15,44,22.20
2017,08,15,15,45,22.30
2017,08,15,15,46,22.30
2017,08,15,15,47,22.40
2017,08,15,15,48,22.50
2017,08,15,15,49,22.60
2017,08,15,15,50,22.70
2017,08,15,15,51,22.80
2017,08,15,15,52,22.80
2017,08,15,15,53,22.70
2017,08,15,15,54,22.70
2017,08,15,15,55,22.70
2017,08,15,15,56,22.60
2017,08,15,15,57,22.50
2017,08,15,15,58,22.40
2017,08,15,15,59,22.40
2017,08,15,16,00,22.40
2017,08,15,16,01,22.40
2017,08,15,16,02,22.40
2017,08,15,16,03,22.50
2017,08,15,16,04,22.60
2017,08,15,16,05,22.60
2017,08,15,16,06,22.60
2017,08,15,16,07,22.60
2017,08,15,16,08,22.60
2017,08,15,16,09,22.60
2017,08,15,16,10,22.60
2017,08,15,16,11,22.60
2017,08,15,16,12,22.60
2017,08,15,16,13,22.70
2017,08,15,16,14,22.80
2017,08,15,16,15,22.90
2017,08,15,16,16,23.00
2017,08,15,16,17,23.10
2017,08,15,16,18,23.10
2017,08,15,16,19,23.20
2017,08,15,16,20,23.30
2017,08,15,16,21,23.30
2017,08,15,16,22,23.30
2017,08,15,16,23,23.20
2017,08,15,16,24,23.20
2017,08,15,16,25,23.20
2017,08,15,16,26,23.20
2017,08,15,16,27,23.20
2017,08,15,16,28,23.30
2017,08,15,16,29,23.40
2017,08,15,16,30,23.40
2017,08,15,16,31,23.50
2017,08,15,16,32,23.50
2017,08,15,16,33,23.60
2017,08,15,16,34,23.60
2017,08,15,16,35,23.70
2017,08,15,16,36,23.70
2017,08,15,16,37,23.70
2017,08,15,16,38,23.80
2017,08,15,16,39,23.80
2017,08,15,16,40,23.80
2017,08,15,16,41,23.80
2017,08,15,16,42,23.80
2017,08,15,16,43,23.80
2017,08,15,16,44,23.80
2017,08,15,16,45,23.90
2017,08,15,16,46,23.90
2017,08,15,16,47,23.90
2017,08,15,16,48,23.90
2017,08,15,16,49,23.80
2017,08,15,16,50,23.80
2017,08,15,16,51,23.80
2017,08,15,16,52,23.90
2017,08,15,16,53,23.90
2017,08,15,16,54,24.00
2017,08,15,16,55,24.10
2017,08,15,16,56,24.10
2017,08,15,16,57,24.20
2017,08,15,16,58,24.20
2017,08,15,16,59,24.20
2017,08,15,17,00,24.10
2017,08,15,17,01,24.10
2017,08,15,17,02,24.10
2017,08,15,17,03,24.10
2017,08,15,17,04,24.10
2017,08,15,17,05,24.10
2017,08,15,17,06,24.10
2017,08,15,17,07,24.10
2017,08,15,17,08,24.00
2017,08,15,17,09,23.90
2017,08,15,17,10,23.80
2017,08,15,17,11,23.70
2017,08,15,17,12,23.70
2017,08,15,17,13,23.60
2017,08,15,17,14,23.50
2017,08,15,17,15,23.40
2017,08,15,17,16,23.40
2017,08,15,17,17,23.40
2017,08,15,17,18,23.30
2017,08,15,17,19,23.30